This is the latest recevied weather packets stored in our database for station/object K7LDN-13. If no packets are shown the sender has not sent any weather packets the latest 10 day(s).
| Time | Temp. | Humidity | Pressure | Rain* | Wind** | Luminosity | Snow |
|---|---|---|---|---|---|---|---|
| 1778000454 | 10.56° C | 62% | 1013.8 hPa | 0 mm | - | 167 W/m² | - |
| 1778000149 | 10.56° C | 63% | 1013.9 hPa | 0 mm | - | 131 W/m² | - |
| 1777999845 | 10.56° C | 63% | 1013.6 hPa | 0 mm | - | 124 W/m² | - |
| 1777999541 | 10.56° C | 64% | 1013.6 hPa | 0 mm | - | 115 W/m² | - |
| 1777999238 | 10° C | 65% | 1013.8 hPa | 0 mm | - | 126 W/m² | - |
| 1777998937 | 10.56° C | 65% | 1013.8 hPa | 0 mm | - | 128 W/m² | - |
| 1777998633 | 10° C | 64% | 1013.8 hPa | 0 mm | - | 117 W/m² | - |
| 1777998327 | 10.56° C | 63% | 1013.8 hPa | 0 mm | - | 107 W/m² | - |
| 1777998024 | 10.56° C | 63% | 1013.9 hPa | 0 mm | - | 94 W/m² | - |
| 1777997720 | 10.56° C | 64% | 1013.9 hPa | 0 mm | - | 90 W/m² | - |
| 1777997418 | 10.56° C | 65% | 1014 hPa | 0 mm | - | 99 W/m² | - |
| 1777997116 | 10.56° C | 65% | 1013.9 hPa | 0 mm | - | 119 W/m² | - |
| 1777996813 | 10.56° C | 67% | 1013.8 hPa | 0 mm | - | 119 W/m² | - |
| 1777996509 | 10.56° C | 66% | 1013.8 hPa | 0 mm | - | 111 W/m² | - |
| 1777996205 | 10.56° C | 66% | 1013.6 hPa | 0 mm | - | 102 W/m² | - |
| 1777995902 | 10.56° C | 68% | 1013.4 hPa | 0.51 mm | - | 102 W/m² | - |
| 1777995598 | 10.56° C | 65% | 1013.4 hPa | 0.51 mm | - | 99 W/m² | - |
| 1777995296 | 10.56° C | 66% | 1013.2 hPa | 0 mm | - | 95 W/m² | - |
| 1777994992 | 10° C | 67% | 1013.1 hPa | 0.51 mm | - | 85 W/m² | - |
| 1777994689 | 10.56° C | 67% | 1013.3 hPa | 0.51 mm | - | 61 W/m² | - |
| 1777994384 | 10.56° C | 63% | 1013.2 hPa | 0 mm | - | 48 W/m² | - |
| 1777994080 | 11.11° C | 61% | 1013.1 hPa | 0 mm | - | 45 W/m² | - |
| 1777993778 | 11.11° C | 60% | 1013.1 hPa | 0 mm | - | 40 W/m² | - |
| 1777993474 | 11.11° C | 59% | 1012.8 hPa | 0 mm | - | 40 W/m² | - |
| 1777993174 | 11.11° C | 59% | 1013 hPa | 0 mm | - | 44 W/m² | - |
* Rain latest hour (hover to see other rain measurements)
** Current wind speed in m/s (hover to see current wind gust speed)